Other Public Products
Issued by NWS Charleston, SC

Current Version | Previous Version | Graphics & Text | Print | Product List | Glossary On
Versions: 1 2 3 4 5 6 7 8 9 10 11 12 13 14 15 16 17 18 19 20 21 22 23 24 25 26 27 28 29 30 31 32 33 34 35 36 37 38 39 40 41 42 43 44 45 46 47 48 49 50
000
FPUS82 KCHS 221112
OPUCHS

TEST...KCHS/KSAV Gateway Observations...TEST
National Weather Service Charleston SC
700 AM EDT SUN APR 22 2018

NOTE: "fair" indicates few or no clouds below 12,000 feet with no
significant weather and/or obstructions to visibility.

SCZ050-WAZ558-NCZ071-TXZ119-213-PAZ071-DCZ001-FLZ074-172-MI076-
NYZ176-178-MAZ016-IL014-TNZ027-NJZ106-GAZ044-MD014-221200-

...Gateway Observations for Charleston International...

CITY           SKY/WX    TMP DP  RH WIND       PRES   REMARKS
Chas Airport   FAIR      58  55  90 E8        30.29R
Seattle        CLOUDY    45  37  73 N10       30.40S
Charlotte      MOCLDY    51  46  83 SE6       30.33R
Dallas DFW     CLOUDY    53  48  83 NW18      30.05R
Dallas Love    MOCLDY    54  48  80 NW14      30.06R
Philladelphia  FAIR      46  22  38 CALM      30.44R
Wash National  CLOUDY    49  40  71 S5        30.41R
Baltimore      MOCLDY    46  40  79 E5        30.41R
Miami          CLOUDY    76  73  91 E8        30.07R
Detroit        MOCLDY    36  24  62 CALM      30.42R
Newark         FAIR      46  20  35 CALM      30.41R
Laguardia      FAIR      47  24  40 W3        30.41R
J F K          FAIR      41  24  51 CALM      30.42R
Boston Logan   FAIR      44  20  38 NW10      30.34R
Ft. Lauderdale MOCLDY    77  74  90 E12       30.06R
Chicago O`Hare MOCLDY    42  24  49 N8        30.34R
Chicago Midway MOCLDY    44  27  51 NE7       30.34R
Houston Bush   LGT RAIN  67  65  93 NW17G25   29.95R
Houston Hobby  MOCLDY    67  67 100 NW9       29.94R
Nashville      CLOUDY    57  45  62 N3        30.16S
Atlanta        CLOUDY    60  54  80 E10       30.24R

$$

GAZ044-118-TXZ119-213-NCZ071-DCZ001-MDZ014-506-PAZ021-071-NJZ106-
NYZ176-178-MAZ106-OHZ011-021-055-MIZ076-KYZ091-ILZ014-INZ047-
MNZ060-ONZ431-221200-

...Gateway Observations for Savannah International...

CITY           SKY/WX    TMP DP  RH WIND       PRES   REMARKS
Savannah Arpt  FAIR      61  57  87 NE6       30.25R
Atlanta        CLOUDY    60  54  80 E10       30.24R
Charlotte      MOCLDY    51  46  83 SE6       30.33R
Dallas DFW     CLOUDY    53  48  83 NW18      30.05R
Houston Bush   LGT RAIN  67  65  93 NW17G25   29.95R
Wash National  CLOUDY    49  40  71 S5        30.41R
Wash Dulles    MOCLDY    45  39  79 SE3       30.39R
Baltimore      MOCLDY    46  40  79 E5        30.41R
Philadelphia   FAIR      46  22  38 CALM      30.44R
Newark         FAIR      46  20  35 CALM      30.41R
Laguardia      FAIR      47  24  40 W3        30.41R
J F K          FAIR      41  24  51 CALM      30.42R
Boston         FAIR      44  20  38 NW10      30.34R
Pittsburg      MOCLDY    45  24  43 NE7       30.33R
Akron          MOCLDY    42  23  46 NE5       30.36R
Cleveland      FAIR      36  31  82 CALM      30.41R
Cincinnati     CLOUDY    48  27  44 NE8       30.28R
Columbus       FAIR      43  31  62 NE5       30.31R
Detroit        MOCLDY    36  24  62 CALM      30.42R
Chicago O`Hare MOCLDY    42  24  49 N8        30.34R
Minneapolis    FAIR      40  32  73 SE3       30.34R
Indianapolis   CLOUDY    47  24  40 NE10      30.28S
Toronto Canada CLEAR     37  23  56 W5        30.42R WCI  34

$$




USA.gov is the U.S. government's official web portal to all federal, state and local government web resources and services.